Weather Roundup
Issued by NWS Chicago, IL

Home | Current Version | Previous Version | Graphics & Text | Print | Product List | Glossary On
Versions: 1 2 3 4 5 6 7 8 9 10 11 12 13 14 15 16 17 18 19 20 21 22 23 24 25 26 27 28 29 30 31 32 33 34 35 36 37 38 39 40 41 42 43 44 45 46 47 48 49 50
000
NZUS59 KLOT 030409
HRRLOT

CHICAGO AREA WEATHER ROUNDUP
NATIONAL WEATHER SERVICE CHICAGO/ROMEOVILLE IL
1100 PM CDT WED SEP 02 2015

NOTE: "FAIR" INDICATES FEW OR NO CLOUDS BELOW 12,000 FEET WITH NO
SIGNIFICANT WEATHER AND/OR OBSTRUCTIONS TO VISIBILITY.

* THESE STATIONS ARE NOT UNDER NWS QUALITY CONTROL. THEY ALSO MAY NOT
  REPORT WEATHER SUCH AS PRECIPITATION OR FOG.

ILZ005-006-012>014-019>023-030500-
NORTHEAST ILLINOIS

CITY           SKY/WX    TMP DP  RH WIND       PRES   REMARKS
OHARE          MOCLDY    79  67  66 S6        29.97S HX  81
MIDWAY         MOCLDY    82  69  64 S5        29.98R HX  85
AURORA         MOCLDY    76  69  79 S5        29.98S
LANSING*       PTCLDY    75  68  79 CALM      29.99S
JOLIET*        CLOUDY    74  72  91 CALM      29.98S
WAUKEGAN       MOCLDY    76  69  79 S5        29.96S
DUPAGE AIRPORT PTCLDY    74  67  78 S3        29.98R
WHEELING       PTCLDY    77  68  73 S5        29.98S
KANKAKEE*      PTCLDY    74  70  86 SW5       30.00S
MORRIS*        MOCLDY    73  70  90 CALM      29.97S
LEWIS AIRPORT* CLOUDY    75  68  80 S5        29.99S
NORTHERLY IS     N/A     80  67  64 S3          N/A  HX  82
$$

WIZ051-052-058>065-066-070>072-030500-
SOUTHEAST WISCONSIN

CITY           SKY/WX    TMP DP  RH WIND       PRES   REMARKS
MILWAUKEE      MOCLDY    78  71  79 S6        29.95F HX  80
KENOSHA*       MOCLDY    77  70  79 S5        29.97S
RACINE*        CLOUDY    75  70  84 S5        29.97F
BURLINGTON     PTCLDY    70  68  95 SW3       29.96S
WAUKESHA       PTCLDY    73  68  83 CALM      29.97S
WEST BEND      CLOUDY    72  68  88 CALM      29.96S
$$

INZ001>003-010>013-019-020-030500-
NORTHWEST INDIANA

CITY           SKY/WX    TMP DP  RH WIND       PRES   REMARKS
GARY*          PTCLDY    73  68  85 CALM      29.99S
MICHIGAN CITY* NOT AVBL
RENSSELAER*    NOT AVBL
VALPARAISO     MOCLDY    78  69  73 S3        30.01R HX  80
$$

LMZ740>746-030500-
SOUTHERN LAKE MICHIGAN

STATION/POSITION TIME  SKY/WX   TEMP WIND        PRES    VSBY
                                AIR  DIR/SP/G
                 (UTC)          (F)  (DEG/KT/KT) (MB)    (MI)
HARRISON CRIB    0300            82  180/  8/  9   N/A
BURNHAM HARBOR   0400            80  200/  5       N/A
CALUMET HARBOR   0300            81  180/  4/  4   N/A
BURNS HARBOR     0300            80  190/  7/  8 1015.9R
MICHIGAN CITY    0300            82  160/  8/ 10   N/A
$$

ABBREVIATIONS USED IN REMARKS
   TC - TEMPERATURE IN CELSIUS
  WCI - WIND CHILL INDEX
   HX - HEAT INDEX
  VSB - VISIBILITY
$$


USA.gov is the U.S. government's official web portal to all federal, state and local government web resources and services.